Top Leagues

Results

From:
To:

SoccerColombiaPrimera A

27/09 00:00Deportivo Cali - Deportivo La Equidad1:2 (1:2, 0:0, 1:0, 4:4, 5:3, 2:1, 3:2, 1:0, 2:2, 2:2)
27/09 02:00Jaguares De Cordoba - Rionegro Aguilas0:0 (0:0)

SoccerHondurasLiga Nacional, Reserve

27/09 00:00CDS Vida Reserve - CD Real Espana Reserve3:3 (2:2, 1:1)
27/09 00:00Marathon Reserve - CD Real Espana Reserve4:2 (1:2, 3:0)
27/09 00:00Victoria La Ceiba Reserve - Honduras Progreso Reserve0:1 (0:0)

SoccerMexicoPrimera Division, Women

27/09 01:00Deportivo Toluca (w) - UANL Tigres (w)1:2 (1:2)
27/09 01:05Leon (w) - Guadalajara Chivas (w)0:0 (0:0)

SoccerBrazilGaucho Cup

27/09 01:00Sao Luiz RS - Garibaldi Rs1:2 (1:2, 6:3)

SoccerBrazilMaranhense

27/09 01:00Maranhao MA - Chapadinha FC0:0 (0:0, 1:3)

SoccerBrazilSerie B

27/09 02:00CSA AL - Tombense MG0:0 (0:0, 0:0)

SoccerArgentinaTorneo Federal A

27/09 02:00Union Sunchales - Juventud Unida Gualeguaychu0:0 (0:0)

TennisATPBuenos Aires, Singles

27/09 00:00Dutra Da Silva, Daniel - Ugo Carabelli, Camilo0:2 (2:6, 2:6, 4:12)
27/09 01:20Torres, Juan Bautista - Olivieri, Genaro Alberto0:0 (1:3)

TennisITFTempleton, Women, Singles

27/09 00:00Hart, Jada Myii - Osborne, Alexandra0:1 (4:6, 0:2)
27/09 00:30Aubuchon, Micheline - Vecic, Alexandra0:2 (1:6, 0:6, 1:12)
27/09 00:30Glatch, Alexa - Carrington, Safiya1:0 (6:3, 5:1)
27/09 00:30Montgomery, Robin - Bunch, Kendra1:0 (6:2, 1:1)
27/09 00:30Tjen, Janice - Manasse, Maegan1:0 (6:3, 6:3)

FutsalInternational ClubsCopa Libertadores

27/09 00:00Red Panther / Muffatao / Cascavel PR - Panta NPA Walon2:1 (1:0, 1:1)

VirtualFootballInternationalVirtualFootball

27/09 00:00LEE-NEW4:1 
27/09 00:02CRY-LIV0:2 
27/09 00:04CHE-WOL2:1 
27/09 00:06FUL-NOT1:1 
27/09 00:08LEE-BOU0:1 
27/09 00:10TOT-AST0:1 
27/09 00:12MNC-MNU1:0 
27/09 00:14BHA-LIV1:2 
27/09 00:16FUL-NOT1:3 
27/09 00:18CRY-CHE1:1 
27/09 00:20LEI-WHU1:1 
27/09 00:22BHA-SOU2:0 
27/09 00:24EVE-LIV2:1 
27/09 00:26CHE-TOT1:1 
27/09 00:28NOT-LEE2:1 
27/09 00:30ARS-FUL2:0 
27/09 00:32MNU-LIV1:2 
27/09 00:34LEI-CRY2:0 
27/09 00:36BRE-NOT0:0 
27/09 00:38CHE-BOU1:0 
27/09 00:40EVE-TOT0:2 
27/09 00:42LEI-LIV1:0 
27/09 00:44WHU-BRE2:1 
27/09 00:46WOL-MNU0:2 
27/09 00:48EVE-NEW1:1 
27/09 00:50LEE-FUL1:0 
27/09 00:52SOU-AST3:1 
27/09 00:54NOT-MNC2:2 
27/09 00:56CHE-MNU4:2 
27/09 00:58WHU-WOL0:1 
27/09 01:00BHA-ARS2:2 
27/09 01:02BOU-LIV0:6 
27/09 01:04CRY-MNC0:2 
27/09 01:06MNU-WHU4:1 
27/09 01:08AST-ARS0:1 
27/09 01:10WOL-BOU0:0 
27/09 01:12NEW-CHE2:1 
27/09 01:14MNC-NOT3:0 
27/09 01:16TOT-BRE0:0 
27/09 01:18MNU-ARS0:3 
27/09 01:20NEW-CHE2:2 
27/09 01:22MNC-WOL3:3 
27/09 01:24TOT-BOU1:1 
27/09 01:26FUL-LEI1:3 
27/09 01:28BHA-CHE0:0 
27/09 01:30EVE-SOU3:1 
27/09 01:32WHU-BRE0:0 
27/09 01:34AST-NEW1:0 
27/09 01:36MNU-MNC2:3 
27/09 01:38CRY-WOL3:0 
27/09 01:40ARS-SOU0:0 
27/09 01:42BHA-FUL2:3 
27/09 01:44AST-NOT2:1 
27/09 01:46LEE-WOL0:1 
27/09 01:48CHE-MNC1:2 
27/09 01:50FUL-TOT2:4 
27/09 01:52WHU-CRY0:0 
27/09 01:54AST-BRE1:0 
27/09 01:56ARS-BHA2:0 
27/09 01:58LIV-NOT1:1 
27/09 02:00WOL-MNU2:2 

BasketballBrazilU22, LDB

27/09 00:00Pinheiros U22 - Unitra/Praia U2297:82 (49:42, 48:40, 26:21, 23:21, 26:23, 22:17)

BasketballBrazilPaulista

27/09 01:00Bauru - Rio Claro43:27 (43:27, 26:14, 17:13)

VolleyballBrazilU19, Paulista, Women

27/09 01:00Sao Paulo U19 (w) - Praia Grande U19 (w)1:0 (25:19, 16:11)

HandballBrazilSuperliga

27/09 01:00Itajai - Pinheiros10:14 (7:13, 3:1)

BaseballUSAInternational League

27/09 01:05Rochester Red Wings - Worcester1:6 (1:6)
27/09 01:15Columbus Clippers - Indianapolis Indians5:0 (5:0)
27/09 01:35Charlotte Knights - Durham Bulls0:0 (0:0)

BaseballUSAMLB

27/09 01:35Pittsburgh Pirates - Cincinnati Reds0:1 (0:1, 0:0)

Confirmation

Do you really want to proceed?
OKClose

Session Expired

Please login again
Close

Multiple sessions

You have been signed out due to multiple logins. Please sign in again
OK